Regional Weather Roundup
Issued by NWS

Home | Current Version | Previous Version | Graphics & Text | Print | Product List | Glossary On
Versions: 1 2 3 4 5 6 7 8 9 10 11 12 13 14 15 16 17 18 19 20 21 22 23 24 25 26 27 28 29 30 31 32 33 34 35 36 37 38
000
ASUS45 KBOU 230207
RWRCO

WEATHER ROUNDUP FOR COLORADO
NATIONAL WEATHER SERVICE DENVER/BOULDER CO
800 PM MDT WED OCT 22 2014

NOTE: "FAIR" INDICATES FEW OR NO CLOUDS BELOW 12000 FEET WITH NO
SIGNIFICANT WEATHER AND/OR OBSTRUCTIONS TO VISIBILITY.

COZ001>005-013-030-031-230300-
...NORTHWEST COLORADO...

CITY           SKY/WX    TMP DP  RH WIND       PRES   REMARKS
CRAIG          PTCLDY    41  35  79 CALM      30.22R
HAYDEN         PTCLDY    46  34  61 CALM      30.23R
MEEKER         CLEAR     46  37  71 NE3       30.23R
MOUNT WERNER   NOT AVBL
STEAMBOAT SPGS PTCLDY    44  33  66 E5        30.24S
WALDEN         CLEAR     36  27  69 S8        30.28R
$$

COZ006>008-011-230300-
...WEST CENTRAL VALLEYS...

CITY           SKY/WX    TMP DP  RH WIND       PRES   REMARKS
GRAND JUNCTION CLEAR     51  37  58 NE8       30.14R
MONTROSE       PTCLDY    55  42  61 S5        30.21R
EAGLE          CLOUDY    48  45  87 S3        30.28R
RIFLE          PTCLDY    50  42  74 SE7       30.20R
DELTA          PTCLDY    58  42  56 CALM      30.16S
NUCLA          PTCLDY    61  34  36 W3        30.23S
$$

COZ017>023-064>068-230300-
...SOUTHWEST COLORADO...

CITY           SKY/WX    TMP DP  RH WIND       PRES   REMARKS
DURANGO        CLEAR     54  38  54 SW5       30.23R
CORTEZ         CLEAR     49  36  61 CALM      30.21R
PAGOSA SPRINGS CLEAR     47  40  74 CALM      30.29R
TELLURIDE      PTCLDY    48  33  55 CALM      30.37R
WOLF CREEK PAS PTCLDY    32  32 100 SW15        N/A  WCI  22
$$

COZ009-010-012-014-032>034-037-058>063-230300-
...CENTRAL COLORADO...

CITY           SKY/WX    TMP DP  RH WIND       PRES   REMARKS
ASPEN          MOCLDY    40  36  86 S7        30.30R
BUENA VISTA    CLOUDY    45  34  64 NW6       30.28R
COPPER MTN     PTCLDY    36  28  75 SW10G16   30.45R
BERTHOUD PASS  CLOUDY    28  25  86 W21G29    30.44S WCI  15
COTTONWOOD PAS MOCLDY    45  32  61 W5        30.37R
GUNNISON       MOCLDY    50  34  53 N6        30.30R
KREMMLING      PTCLDY    41  34  75 NE3         N/A
LEADVILLE      MOCLDY    39  30  70 N6        30.36R
MONARCH PASS   CLOUDY    32  32 100 W18       30.54R WCI  20
SALIDA         MOCLDY    49  37  61 W5        30.34R
SUNLIGHT       PTCLDY    36  34  93 CALM      30.42S
WILKERSON PASS NOT AVBL
$$

COZ069>075-230300-
...SAN LUIS VALLEY/SANGRE DE CRISTO MOUNTAINS...

CITY           SKY/WX    TMP DP  RH WIND       PRES   REMARKS
ALAMOSA        PTCLDY    50  33  52 NW10      30.24R
LA VETA PASS   MOCLDY    45  30  57 S7        30.37R
SAGUACHE       CLOUDY    48  37  66 N5        30.28R
$$

COZ035-036-038>040-230300-
...NORTHERN COLORADO FRONT RANGE...

CITY           SKY/WX    TMP DP  RH WIND       PRES   REMARKS
DENVER INTL AP MOCLDY    56  41  57 S6        30.14R
DMNS CITY PARK   N/A     59  39  48 S3        30.13S
AURORA         PTCLDY    52  43  70 SE8       30.16R
FRONT RANGE AP NOT AVBL
ERIE MUNI ARPT MOCLDY    62  32  33 W9        30.13R
BOULDER MUN AP MOCLDY    61  34  36 SW5       30.13S
CENTENNIAL     PTCLDY    53  41  63 SE7       30.16R
BROOMFIELD     MOCLDY    61  32  33 W14       30.15R
FORT COLLINS   PTCLDY    57  36  44 CALM      30.12R
LONGMONT       PTCLDY    57  37  48 SW8       30.13S
$$

COZ041-046-047-076>085-087-088-230300-
...PIKES PEAK/PALMER DIVIDE AND SOUTHERN FOOTHILLS...

CITY           SKY/WX    TMP DP  RH WIND       PRES   REMARKS
COLO. SPRINGS  MOCLDY    56  40  55 E10       30.18R
A. F. ACADEMY  PTCLDY    51  44  77 N8        30.19R
ELLICOTT       CLOUDY    54  42  64 E12       30.17R
FALCON         CLOUDY    50  42  74 CALM      30.22R
FORT CARSON    MOCLDY    58  41  53 NE5       30.16R
LIMON          CLOUDY    49  46  90 CALM      30.15R
MONUMENT HILL  PTCLDY    46  36  66 SW8       30.21R
TRINIDAD       MOCLDY    61  38  42 NE8       30.13R
$$

COZ042>045-048>051-090-091-230300-
...NORTHEAST COLORADO...

CITY           SKY/WX    TMP DP  RH WIND       PRES   REMARKS
GREELEY ARPT   PTCLDY    52  36  54 NE9       30.11R
AKRON          PTCLDY    50  37  61 E7        30.11R
BURLINGTON     PTCLDY    56  40  55 E5        30.11R
WRAY           CLEAR     51  34  51 N9        30.09R
STERLING       PTCLDY    55  39  54 NE5       30.09R
HOLYOKE        CLEAR     46  36  66 CALM      30.10R
FORT MORGAN    CLOUDY    55  37  50 E8        30.11R
$$

COZ086-089-092>099-230300-
...SOUTHEAST COLORADO...

CITY           SKY/WX    TMP DP  RH WIND       PRES   REMARKS
PUEBLO         MOCLDY    64  41  42 E9        30.09R
LA JUNTA       PTCLDY    60  43  53 E7        30.08R
LAMAR          CLEAR     58  46  64 SE8       30.06R
SPRINGFIELD      N/A     56  44  64 NE6       30.09R
$$



USA.gov is the U.S. government's official web portal to all federal, state and local government web resources and services.